Location: Allos
(44.2333°N, 6.6333°E)
Time: 17:28:01
(UTC+00:00)

deb Agena D - Visible Passes

Search period start: 22 June 2021 00:00
Search period end: 02 July 2021 00:00
Orbit: 573 x 592 km, 99.7° (Epoch: 22 June)

Date Brightness Start Highest point End Pass type
(mag) Time Alt. Az. Time Alt. Az. Time Alt. Az.
22 Jun ? 20:45:24 10° SSW 20:48:39 22° W 20:51:57 10° NW visible
23 Jun ? 20:51:11 10° SW 20:54:15 20° W 20:57:22 10° NW visible
24 Jun ? 20:56:59 10° SW 20:59:51 18° W 21:02:44 10° NW visible
25 Jun ? 21:02:49 10° SW 21:05:26 16° W 21:08:05 10° NW visible
26 Jun ? 21:08:43 10° SW 21:11:02 15° W 21:13:22 10° WNW visible
27 Jun ? 21:14:40 10° WSW 21:16:37 13° W 21:18:34 10° WNW visible
28 Jun ? 21:20:44 10° WSW 21:22:11 12° W 21:23:39 10° WNW visible
29 Jun ? 21:27:14 10° W 21:27:45 10° W 21:28:17 10° W visible
30 Jun ? 19:53:28 10° SSE 19:57:38 83° ENE 20:01:49 10° NNW visible
01 Jul ? 19:58:58 10° SSE 20:03:07 87° WSW 20:07:20 10° NNW visible
